Location: Brad
(46.1333°N, 22.7833°E)
Time: 10:05:51
(UTC+00:00)

Cosmos 540 Rocket - Pass Details

Date: 03 February 2023
Orbit: 740 x 751 km, 74.1° (Epoch: 31 March)

Event Time Altitude Azimuth Distance (km) Brightness Sun altitude
Rises 16:51:32 0° 340° (NNW) 3,206 6.9 -13.3°
Reaches altitude 10° 16:53:56 10° 343° (NNW) 2,276 6.0 -13.7°
Maximum altitude 16:59:04 68° 67° (ENE) 806 3.4 -14.6°
Drops below altitude 10° 17:04:09 10° 150° (SSE) 2,253 5.7 -15.4°
Sets 17:06:31 0° 153° (SSE) 3,170 6.5 -15.9°
